Weather History for Kandahar, Afghanistan

Change the Weather History Date:

Friday, April 18, 2014

  Actual Average Record
Temperature  
Mean Temperature 70 °F -  
Max Temperature 78 °F 89 °F - ()
Min Temperature 62 °F 58 °F - ()
Cooling Degree Days 5    
Growing Degree Days 20 (Base 50)    
Moisture  
Dew Point 35 °F    
Average Humidity 28    
Maximum Humidity 39    
Minimum Humidity 16    
Precipitation  
Precipitation 0.00 in 0.01 in - ()
Sea Level Pressure  
Sea Level Pressure 29.94 in    
Wind  
Wind Speed 10 mph ()    
Max Wind Speed 17 mph    
Max Gust Speed 29 mph    
Visibility 6.2 miles    
Events      
T = Trace of Precipitation, MM = Missing Value Source: Averaged Metar Reports

Daily Weather History Graph

Daily Weather History Graph

Search for Another Location

Airport:

Trip Planner

Search our weather history database for the weather conditions in past years. The results will help you decide how hot, cold, wet, or windy it might be!

Date:

Astronomy

Apr. 18, 2014 Rise Set
Actual Time 5:35 AM AFT 6:37 PM AFT
Civil Twilight 5:10 AM AFT 7:02 PM AFT
Nautical Twilight 4:40 AM AFT 7:32 PM AFT
Astronomical Twilight 4:10 AM AFT 8:02 PM AFT
Moon 9:48 PM AFT (4/18) 7:42 AM AFT (4/18)
Length of Visible Light 13h 51m
Length of Day
13h 01m
Waning Gibbous, 90% of the Moon is Illuminated
Apr 18
Waning Gibbous
Apr 22
Last Quarter
Apr 29
New
May 7
First Quarter
May 14
Full

Hourly Weather History & Observations

Time (AFT) Temp. Dew Point Humidity Pressure Visibility Wind Dir Wind Speed Gust Speed Precip Events Conditions
12:25 AM 66.2 °F 37.4 °F 35% 29.89 in 6.2 mi West 11.5 mph - N/A   Clear
1:25 AM 66.2 °F 35.6 °F 32% 29.86 in 6.2 mi SW 9.2 mph - N/A   Clear
2:25 AM 66.2 °F 35.6 °F 32% 29.86 in 6.2 mi SW 11.5 mph - N/A   Clear
3:25 AM 64.4 °F 35.6 °F 34% 29.86 in 6.2 mi SW 11.5 mph - N/A   Clear
4:25 AM 62.6 °F 35.6 °F 37% 29.86 in 6.2 mi SW 10.4 mph - N/A   Clear
5:25 AM 62.6 °F 35.6 °F 37% 29.89 in 6.2 mi SSW 9.2 mph - N/A   Partly Cloudy
6:25 AM 62.6 °F 37.4 °F 39% 29.92 in 6.2 mi SW 8.1 mph - N/A   Clear
7:25 AM 62.6 °F 37.4 °F 39% 29.95 in 6.2 mi SW 6.9 mph - N/A   Clear
8:25 AM 66.2 °F 37.4 °F 35% 29.98 in 6.2 mi West 10.4 mph - N/A   Clear
9:25 AM 68.0 °F 37.4 °F 33% 29.98 in 6.2 mi West 12.7 mph - N/A   Clear
10:25 AM 71.6 °F 39.2 °F 31% 30.01 in 6.2 mi WSW 12.7 mph - N/A   Clear
11:25 AM 75.2 °F 35.6 °F 24% 29.98 in 6.2 mi West 16.1 mph - N/A   Clear
12:25 PM 75.2 °F 35.6 °F 24% 29.98 in 6.2 mi West 17.3 mph 28.8 mph N/A   Clear
1:25 PM 77.0 °F 33.8 °F 21% 29.95 in 6.2 mi West 15.0 mph 26.5 mph N/A   Clear
2:25 PM 78.8 °F 33.8 °F 20% 29.95 in 6.2 mi West 13.8 mph 26.5 mph N/A   Partly Cloudy
3:25 PM 78.8 °F 28.4 °F 16% 29.92 in 6.2 mi West 11.5 mph 24.2 mph N/A   Partly Cloudy
4:25 PM 78.8 °F 30.2 °F 17% 29.95 in 6.2 mi West 11.5 mph 23.0 mph N/A   Scattered Clouds
4:30 PM 78.8 °F 30.2 °F 17% 29.95 in 6.2 mi West 11.5 mph 23.0 mph N/A   Scattered Clouds
5:25 PM 77.0 °F 30.2 °F 18% 29.95 in 6.2 mi West 13.8 mph - N/A   Partly Cloudy
6:25 PM 75.2 °F 32.0 °F 21% 29.95 in 6.2 mi West 11.5 mph - N/A   Partly Cloudy
7:25 PM 73.4 °F 33.8 °F 23% 29.95 in 6.2 mi West 9.2 mph - N/A   Clear
8:25 PM 71.6 °F 35.6 °F 27% 29.98 in 6.2 mi West 9.2 mph - N/A   Clear
9:25 PM 68.0 °F 39.2 °F 35% 30.01 in 6.2 mi SSW 5.8 mph - N/A   Clear
10:25 PM 66.2 °F 37.4 °F 35% 30.01 in 6.2 mi South 4.6 mph - N/A   Clear
11:25 PM 64.4 °F 32.0 °F 30% 30.01 in 6.2 mi SSE 6.9 mph - N/A   Clear